SWA3524 KOAK-KAUS

Flight info

Callsign SWA3524
Flight time N/A
Altitude 37000
Route CNDEL5 KAYEX LOSHN PMD CHADT HRRBR J212 BXK WOBUG Q180 EWM LOWGO UCOKA LAIKS4
Aircraft B38M/M-SADE2E3GHIJ4J7P2RWZ/LB1D1

Departure

Time 2026-05-05 03:22
Airport San Francisco Bay Oakland International Airport (KOAK)

Arrival

Time N/A
Airport Austin Bergstrom International Airport (KAUS)
Time Latitude Longitude Altitude Speed Heading
2026-05-05 02:51 37.70956 -122.21310 13 ft 0 kts 126°
2026-05-05 03:09 37.70961 -122.21319 11 ft 4 kts 124°
2026-05-05 03:10 37.70974 -122.21347 11 ft 4 kts 118°
2026-05-05 03:10 37.70987 -122.21372 13 ft 3 kts 131°
2026-05-05 03:10 37.71004 -122.21387 13 ft 4 kts 189°
2026-05-05 03:10 37.71022 -122.21370 14 ft 4 kts 227°
2026-05-05 03:11 37.71035 -122.21355 12 ft 0 kts 214°
2026-05-05 03:17 37.71032 -122.21357 13 ft 2 kts 214°
2026-05-05 03:17 37.70988 -122.21397 12 ft 14 kts 216°
2026-05-05 03:17 37.70901 -122.21479 13 ft 12 kts 217°
2026-05-05 03:17 37.70867 -122.21573 11 ft 12 kts 262°
2026-05-05 03:18 37.70807 -122.21661 11 ft 16 kts 220°
2026-05-05 03:18 37.70702 -122.21770 13 ft 18 kts 212°
2026-05-05 03:18 37.70601 -122.21729 12 ft 18 kts 131°
2026-05-05 03:18 37.70517 -122.21603 12 ft 20 kts 130°
2026-05-05 03:19 37.70330 -122.21384 13 ft 16 kts 160°
2026-05-05 03:19 37.70247 -122.21356 12 ft 6 kts 183°
2026-05-05 03:19 37.70240 -122.21358 12 ft 0 kts 191°
2026-05-05 03:20 37.70236 -122.21359 12 ft 2 kts 194°
2026-05-05 03:20 37.70188 -122.21397 12 ft 15 kts 226°
2026-05-05 03:21 37.70205 -122.21510 11 ft 19 kts 310°
2026-05-05 03:21 37.70422 -122.21836 12 ft 87 kts 310°
2026-05-05 03:21 37.70966 -122.22653 10 ft 154 kts 309°
2026-05-05 03:21 37.71770 -122.23825 277 ft 187 kts 311°
2026-05-05 03:22 37.72620 -122.25011 995 ft 175 kts 311°
2026-05-05 03:22 37.73437 -122.26158 976 ft 177 kts 312°
2026-05-05 03:22 37.74262 -122.27319 750 ft 176 kts 310°
2026-05-05 03:22 37.75106 -122.28536 785 ft 193 kts 310°
2026-05-05 03:23 37.76019 -122.29865 1076 ft 207 kts 310°
2026-05-05 03:23 37.77004 -122.31349 1730 ft 230 kts 307°
2026-05-05 03:23 37.77986 -122.32953 2232 ft 231 kts 305°
2026-05-05 03:23 37.78915 -122.34751 2431 ft 248 kts 297°
2026-05-05 03:24 37.79412 -122.36831 3230 ft 251 kts 271°
2026-05-05 03:24 37.78993 -122.38969 4313 ft 257 kts 237°
2026-05-05 03:24 37.77693 -122.40487 5418 ft 260 kts 206°
2026-05-05 03:24 37.75930 -122.41130 6326 ft 271 kts 185°
2026-05-05 03:25 37.74035 -122.41275 7350 ft 274 kts 184°
2026-05-05 03:25 37.72124 -122.41645 8244 ft 284 kts 190°
2026-05-05 03:25 37.70149 -122.42138 9132 ft 292 kts 191°
2026-05-05 03:25 37.68125 -122.42647 9777 ft 301 kts 191°
2026-05-05 03:26 37.66070 -122.43166 9927 ft 301 kts 191°
2026-05-05 03:26 37.64016 -122.43687 10204 ft 303 kts 191°
2026-05-05 03:26 37.61949 -122.44207 11125 ft 303 kts 190°
2026-05-05 03:26 37.59884 -122.44724 12014 ft 308 kts 190°
2026-05-05 03:27 37.57769 -122.45254 12900 ft 312 kts 189°
2026-05-05 03:27 37.55614 -122.45797 13752 ft 319 kts 189°
2026-05-05 03:27 37.53428 -122.46344 14520 ft 322 kts 189°
2026-05-05 03:27 37.51205 -122.46735 15226 ft 324 kts 175°
2026-05-05 03:28 37.49070 -122.46123 15961 ft 318 kts 150°
2026-05-05 03:28 37.47290 -122.44521 16650 ft 314 kts 129°
2026-05-05 03:28 37.45867 -122.42432 17385 ft 316 kts 126°
2026-05-05 03:28 37.44450 -122.40309 18123 ft 319 kts 125°
2026-05-05 03:29 37.43031 -122.38148 18731 ft 324 kts 124°
2026-05-05 03:29 37.41598 -122.35948 18931 ft 324 kts 124°
2026-05-05 03:29 37.40177 -122.33757 19042 ft 322 kts 124°
2026-05-05 03:29 37.38770 -122.31574 19049 ft 321 kts 124°
2026-05-05 03:30 37.37364 -122.29395 19058 ft 320 kts 124°
2026-05-05 03:30 37.36417 -122.27931 19050 ft 320 kts 124°
2026-05-05 03:30 37.35012 -122.25758 19043 ft 320 kts 124°
2026-05-05 03:30 37.33625 -122.23610 19043 ft 320 kts 124°
2026-05-05 03:31 37.32203 -122.21412 19039 ft 320 kts 124°
2026-05-05 03:31 37.30822 -122.19275 19047 ft 320 kts 124°
2026-05-05 03:31 37.29397 -122.17073 19091 ft 321 kts 124°
2026-05-05 03:31 37.28007 -122.14927 19069 ft 321 kts 124°
2026-05-05 03:32 37.26596 -122.12750 19090 ft 323 kts 124°
2026-05-05 03:32 37.25179 -122.10560 19668 ft 323 kts 124°
2026-05-05 03:32 37.23759 -122.08374 20321 ft 325 kts 124°
2026-05-05 03:32 37.22325 -122.06166 20957 ft 327 kts 124°
2026-05-05 03:33 37.20887 -122.03954 21607 ft 329 kts 123°
2026-05-05 03:33 37.19429 -122.01711 22197 ft 333 kts 123°
2026-05-05 03:33 37.17963 -121.99459 22786 ft 335 kts 123°
2026-05-05 03:33 37.16480 -121.97181 23325 ft 339 kts 123°
2026-05-05 03:34 37.14991 -121.94892 23853 ft 339 kts 123°
2026-05-05 03:34 37.13494 -121.92599 24284 ft 341 kts 123°
2026-05-05 03:34 37.11989 -121.90298 24784 ft 341 kts 123°
2026-05-05 03:34 37.10485 -121.87998 25246 ft 342 kts 122°
2026-05-05 03:35 37.08976 -121.85684 25711 ft 343 kts 123°
2026-05-05 03:35 37.07464 -121.83371 26149 ft 345 kts 122°
2026-05-05 03:35 37.05938 -121.81038 26569 ft 347 kts 122°
2026-05-05 03:35 37.04409 -121.78703 27024 ft 347 kts 123°
2026-05-05 03:36 37.02875 -121.76362 27515 ft 348 kts 123°
2026-05-05 03:36 37.01338 -121.74018 27940 ft 350 kts 122°
2026-05-05 03:36 36.99798 -121.71670 28428 ft 348 kts 122°
2026-05-05 03:36 36.98259 -121.69325 28848 ft 350 kts 122°
2026-05-05 03:37 36.96691 -121.66979 29243 ft 353 kts 122°
2026-05-05 03:37 36.95140 -121.64598 29682 ft 353 kts 122°
2026-05-05 03:37 36.93580 -121.62216 30079 ft 355 kts 122°
2026-05-05 03:37 36.92004 -121.59820 30395 ft 358 kts 122°
2026-05-05 03:38 36.90415 -121.57406 30619 ft 362 kts 123°
2026-05-05 03:38 36.88804 -121.54963 30849 ft 366 kts 123°
2026-05-05 03:38 36.87176 -121.52496 31092 ft 370 kts 124°
2026-05-05 03:38 36.85528 -121.50000 31254 ft 375 kts 124°
2026-05-05 03:39 36.83859 -121.47477 31511 ft 378 kts 124°
2026-05-05 03:39 36.82180 -121.44938 31726 ft 382 kts 124°
2026-05-05 03:39 36.80486 -121.42378 31963 ft 385 kts 125°
2026-05-05 03:39 36.78792 -121.39821 32174 ft 388 kts 125°
2026-05-05 03:40 36.77064 -121.37215 32391 ft 392 kts 126°
2026-05-05 03:40 36.75297 -121.34551 32618 ft 395 kts 126°
2026-05-05 03:40 36.73560 -121.31935 32831 ft 399 kts 126°
2026-05-05 03:40 36.71786 -121.29264 33027 ft 403 kts 127°
2026-05-05 03:41 36.69986 -121.26558 33185 ft 407 kts 127°
2026-05-05 03:41 36.68153 -121.23804 33432 ft 409 kts 127°
2026-05-05 03:41 36.66332 -121.21069 33667 ft 411 kts 128°
2026-05-05 03:41 36.64524 -121.18357 33882 ft 414 kts 128°
2026-05-05 03:42 36.62682 -121.15595 34088 ft 416 kts 128°
2026-05-05 03:42 36.60827 -121.12817 34293 ft 419 kts 128°
2026-05-05 03:42 36.58958 -121.10020 34497 ft 420 kts 128°
2026-05-05 03:42 36.57088 -121.07225 34726 ft 421 kts 128°
2026-05-05 03:43 36.53302 -121.01569 35022 ft 428 kts 129°
2026-05-05 03:43 36.51393 -120.98719 35201 ft 430 kts 129°
2026-05-05 03:43 36.49467 -120.95848 35317 ft 434 kts 129°
2026-05-05 03:44 36.47540 -120.92960 35557 ft 434 kts 130°
2026-05-05 03:44 36.45616 -120.90074 35768 ft 435 kts 130°
2026-05-05 03:44 36.43672 -120.87162 35916 ft 438 kts 130°
2026-05-05 03:44 36.41729 -120.84250 36124 ft 439 kts 130°
2026-05-05 03:45 36.39772 -120.81325 36277 ft 441 kts 130°
2026-05-05 03:45 36.37805 -120.78382 36430 ft 444 kts 131°
2026-05-05 03:45 36.35832 -120.75436 36612 ft 445 kts 131°
2026-05-05 03:45 36.33848 -120.72477 36753 ft 448 kts 130°
2026-05-05 03:46 36.31848 -120.69495 36903 ft 450 kts 131°
2026-05-05 03:46 36.29842 -120.66509 37033 ft 452 kts 131°
2026-05-05 03:46 36.25786 -120.60475 37023 ft 460 kts 131°
2026-05-05 03:47 36.21657 -120.54344 37021 ft 467 kts 131°
2026-05-05 03:47 36.17462 -120.48127 37025 ft 472 kts 131°
2026-05-05 03:48 36.13255 -120.41903 37026 ft 471 kts 131°
2026-05-05 03:48 36.09045 -120.35686 37021 ft 472 kts 132°
2026-05-05 03:49 36.04829 -120.29472 37023 ft 471 kts 132°
2026-05-05 03:49 36.00641 -120.23310 37014 ft 471 kts 132°
2026-05-05 03:50 35.96421 -120.17114 37012 ft 472 kts 133°
2026-05-05 03:50 35.92192 -120.10913 37002 ft 472 kts 133°
2026-05-05 03:51 35.87971 -120.04736 37007 ft 470 kts 133°
2026-05-05 03:51 35.83725 -119.98598 37015 ft 470 kts 134°
2026-05-05 03:52 35.79439 -119.92507 37015 ft 471 kts 134°
2026-05-05 03:52 35.75147 -119.86404 37012 ft 471 kts 134°
2026-05-05 03:53 35.70858 -119.80315 37003 ft 470 kts 135°
2026-05-05 03:53 35.66573 -119.74243 36995 ft 469 kts 135°
2026-05-05 03:54 35.62282 -119.68173 37003 ft 471 kts 135°
2026-05-05 03:54 35.57980 -119.62099 37004 ft 471 kts 135°
2026-05-05 03:55 35.53675 -119.56030 36998 ft 471 kts 135°
2026-05-05 03:55 35.49374 -119.49978 36975 ft 470 kts 136°
2026-05-05 03:56 35.45064 -119.43925 36989 ft 471 kts 136°
2026-05-05 03:56 35.40749 -119.37875 36992 ft 471 kts 136°
2026-05-05 03:57 35.36434 -119.31835 36991 ft 471 kts 136°
2026-05-05 03:57 35.32113 -119.25799 36992 ft 472 kts 137°
2026-05-05 03:58 35.27782 -119.19758 36976 ft 471 kts 137°
2026-05-05 03:58 35.23458 -119.13739 36985 ft 471 kts 137°
2026-05-05 03:59 35.19161 -119.07767 36985 ft 471 kts 137°
2026-05-05 03:59 35.14827 -119.01755 36990 ft 472 kts 138°
2026-05-05 04:00 35.10487 -118.95744 36985 ft 472 kts 138°
2026-05-05 04:00 35.06155 -118.89754 36987 ft 470 kts 139°
2026-05-05 04:01 35.01821 -118.83774 36991 ft 470 kts 139°
2026-05-05 04:01 34.97488 -118.77805 36998 ft 470 kts 140°
2026-05-05 04:02 34.93148 -118.71836 36992 ft 470 kts 140°
2026-05-05 04:02 34.88824 -118.65857 36981 ft 470 kts 140°
2026-05-05 04:03 34.84470 -118.59924 36994 ft 469 kts 140°
2026-05-05 04:03 34.80131 -118.53994 36996 ft 469 kts 140°
2026-05-05 04:04 34.75794 -118.48071 37003 ft 469 kts 140°
2026-05-05 04:04 34.71455 -118.42153 37004 ft 469 kts 140°
2026-05-05 04:05 34.67106 -118.36234 36975 ft 469 kts 141°
2026-05-05 04:05 34.62774 -118.30347 37014 ft 467 kts 141°
2026-05-05 04:06 34.58440 -118.24467 37003 ft 467 kts 141°
2026-05-05 04:06 34.54186 -118.18489 36844 ft 482 kts 123°
2026-05-05 04:07 34.53574 -118.14464 37036 ft 491 kts 98°
2026-05-05 04:07 34.53229 -118.10423 37002 ft 477 kts 114°
2026-05-05 04:07 34.52201 -118.06673 37013 ft 466 kts 119°
2026-05-05 04:07 34.51186 -118.02898 36972 ft 474 kts 118°
2026-05-05 04:08 34.49167 -117.95240 37006 ft 480 kts 118°
2026-05-05 04:08 34.47107 -117.87470 36996 ft 488 kts 118°
2026-05-05 04:09 34.45011 -117.79590 36989 ft 496 kts 117°
2026-05-05 04:09 34.42872 -117.71574 36986 ft 503 kts 118°
2026-05-05 04:10 34.40710 -117.63492 36975 ft 505 kts 118°
2026-05-05 04:10 34.38537 -117.55396 36987 ft 507 kts 118°
2026-05-05 04:11 34.36355 -117.47287 36946 ft 507 kts 118°
2026-05-05 04:11 34.34164 -117.39173 37010 ft 507 kts 118°
2026-05-05 04:12 34.31972 -117.31076 37010 ft 506 kts 118°
2026-05-05 04:12 34.29778 -117.22995 37018 ft 505 kts 118°
2026-05-05 04:13 34.27578 -117.14921 36942 ft 507 kts 119°
2026-05-05 04:13 34.25364 -117.06813 36978 ft 508 kts 119°
2026-05-05 04:14 34.23145 -116.98715 36992 ft 508 kts 118°
2026-05-05 04:14 34.20925 -116.90633 36973 ft 506 kts 119°
2026-05-05 04:15 34.18693 -116.82534 36948 ft 509 kts 119°
2026-05-05 04:15 34.16449 -116.74418 36876 ft 510 kts 119°
2026-05-05 04:16 34.14199 -116.66297 36942 ft 510 kts 119°
2026-05-05 04:16 34.12325 -116.59555 36896 ft 509 kts 120°
2026-05-05 04:17 34.10063 -116.51437 36930 ft 511 kts 119°
2026-05-05 04:17 34.07793 -116.43314 36917 ft 510 kts 120°
2026-05-05 04:18 34.05519 -116.35199 36922 ft 511 kts 120°
2026-05-05 04:18 34.03238 -116.27083 36909 ft 511 kts 120°
2026-05-05 04:19 34.00949 -116.18969 36937 ft 512 kts 120°
2026-05-05 04:19 33.98650 -116.10831 36905 ft 512 kts 120°
2026-05-05 04:20 33.96349 -116.02716 36900 ft 512 kts 120°
2026-05-05 04:20 33.94038 -115.94589 36858 ft 512 kts 120°
2026-05-05 04:21 33.91728 -115.86488 36878 ft 512 kts 120°
2026-05-05 04:21 33.89412 -115.78389 36866 ft 511 kts 120°
2026-05-05 04:22 33.87094 -115.70304 36874 ft 511 kts 121°
2026-05-05 04:22 33.84772 -115.62228 36847 ft 511 kts 120°
2026-05-05 04:23 33.82445 -115.54157 36874 ft 511 kts 120°
2026-05-05 04:23 33.80114 -115.46097 36872 ft 510 kts 120°
2026-05-05 04:24 33.77794 -115.38095 36876 ft 510 kts 120°
2026-05-05 04:25 33.74273 -115.25997 36869 ft 515 kts 120°
2026-05-05 04:25 33.71898 -115.17862 36877 ft 516 kts 120°
2026-05-05 04:26 33.69518 -115.09736 36878 ft 516 kts 120°
2026-05-05 04:26 33.67132 -115.01609 36894 ft 516 kts 120°
2026-05-05 04:27 33.64744 -114.93498 36903 ft 515 kts 122°
2026-05-05 04:27 33.62352 -114.85399 36873 ft 515 kts 122°
2026-05-05 04:28 33.59956 -114.77280 36905 ft 518 kts 120°
2026-05-05 04:28 33.57911 -114.68927 36911 ft 524 kts 118°
2026-05-05 04:29 33.55922 -114.60537 36907 ft 523 kts 118°
2026-05-05 04:29 33.53927 -114.52135 36900 ft 523 kts 118°
2026-05-05 04:30 33.51930 -114.43751 36898 ft 523 kts 118°
2026-05-05 04:30 33.49927 -114.35368 36893 ft 524 kts 118°
2026-05-05 04:31 33.47918 -114.26990 36910 ft 524 kts 118°
2026-05-05 04:31 33.45902 -114.18608 36906 ft 523 kts 118°
2026-05-05 04:32 33.43881 -114.10235 36906 ft 523 kts 118°
2026-05-05 04:32 33.41853 -114.01862 36901 ft 524 kts 119°
2026-05-05 04:33 33.39814 -113.93469 36916 ft 525 kts 119°
2026-05-05 04:33 33.37771 -113.85082 36928 ft 524 kts 119°
2026-05-05 04:34 33.35724 -113.76713 36942 ft 524 kts 119°
2026-05-05 04:34 33.33674 -113.68355 36941 ft 524 kts 119°
2026-05-05 04:35 33.31619 -113.60002 36946 ft 524 kts 119°
2026-05-05 04:35 33.29558 -113.51654 36925 ft 523 kts 119°
2026-05-05 04:36 33.27492 -113.43309 36886 ft 523 kts 119°
2026-05-05 04:36 33.25421 -113.34976 36890 ft 523 kts 120°
2026-05-05 04:37 33.23362 -113.26710 36844 ft 523 kts 120°
2026-05-05 04:37 33.21281 -113.18388 36892 ft 523 kts 120°
2026-05-05 04:38 33.19195 -113.10070 36889 ft 523 kts 120°
2026-05-05 04:38 33.17097 -113.01730 36896 ft 527 kts 120°
2026-05-05 04:39 33.14986 -112.93362 36895 ft 526 kts 120°
2026-05-05 04:39 33.12867 -112.84993 36906 ft 526 kts 120°
2026-05-05 04:40 33.10748 -112.76647 36881 ft 526 kts 120°
2026-05-05 04:40 33.08614 -112.68263 36880 ft 529 kts 120°
2026-05-05 04:41 33.06469 -112.59874 36901 ft 529 kts 120°
2026-05-05 04:41 33.04319 -112.51487 36917 ft 529 kts 120°
2026-05-05 04:42 33.02165 -112.43104 36874 ft 530 kts 120°
2026-05-05 04:42 32.99991 -112.34679 36910 ft 533 kts 120°
2026-05-05 04:43 32.97811 -112.26250 36909 ft 532 kts 120°
2026-05-05 04:43 32.95626 -112.17830 36899 ft 532 kts 120°
2026-05-05 04:44 32.93434 -112.09401 36888 ft 535 kts 119°
2026-05-05 04:44 32.91225 -112.00930 36914 ft 537 kts 119°
2026-05-05 04:45 32.89010 -111.92452 36911 ft 538 kts 118°
2026-05-05 04:45 32.87128 -111.83767 36914 ft 542 kts 116°
2026-05-05 04:46 32.85221 -111.75154 36907 ft 543 kts 116°
2026-05-05 04:46 32.83280 -111.66463 36912 ft 544 kts 116°
2026-05-05 04:47 32.81331 -111.57769 36912 ft 544 kts 116°
2026-05-05 04:47 32.79375 -111.49071 36946 ft 546 kts 116°
2026-05-05 04:48 32.77411 -111.40365 36969 ft 545 kts 116°
2026-05-05 04:48 32.75442 -111.31672 36986 ft 545 kts 116°
2026-05-05 04:49 32.73464 -111.22971 36991 ft 545 kts 116°
2026-05-05 04:49 32.71484 -111.14289 36985 ft 545 kts 116°
2026-05-05 04:50 32.69495 -111.05596 36980 ft 546 kts 116°
2026-05-05 04:50 32.67497 -110.96898 36960 ft 546 kts 116°
2026-05-05 04:51 32.65494 -110.88205 36951 ft 546 kts 116°
2026-05-05 04:51 32.63487 -110.79527 36947 ft 545 kts 116°
2026-05-05 04:52 32.61476 -110.70858 36964 ft 546 kts 116°
2026-05-05 04:52 32.59455 -110.62177 36965 ft 546 kts 116°
2026-05-05 04:53 32.57429 -110.53504 36970 ft 546 kts 116°
2026-05-05 04:53 32.55398 -110.44839 36952 ft 545 kts 116°
2026-05-05 04:54 32.53366 -110.36202 36970 ft 544 kts 116°
2026-05-05 04:54 32.51335 -110.27589 36964 ft 542 kts 116°
2026-05-05 04:55 32.49295 -110.18982 36940 ft 542 kts 116°
2026-05-05 04:55 32.47253 -110.10380 36965 ft 543 kts 116°
2026-05-05 04:56 32.45200 -110.01771 36968 ft 543 kts 116°
2026-05-05 04:56 32.43142 -109.93165 36960 ft 543 kts 116°
2026-05-05 04:57 32.41078 -109.84561 36959 ft 543 kts 116°
2026-05-05 04:57 32.39021 -109.76015 36930 ft 544 kts 116°
2026-05-05 04:58 32.36927 -109.67344 36904 ft 545 kts 115°
2026-05-05 04:58 32.34838 -109.58725 36920 ft 545 kts 116°
2026-05-05 04:59 32.32758 -109.50164 36907 ft 545 kts 116°
2026-05-05 04:59 32.30659 -109.41550 36900 ft 546 kts 116°
2026-05-05 05:00 32.28536 -109.32864 36899 ft 546 kts 116°
2026-05-05 05:00 32.26647 -109.24143 36891 ft 556 kts 108°
2026-05-05 05:01 32.25359 -109.15123 36899 ft 556 kts 108°
2026-05-05 05:01 32.24096 -109.06177 36873 ft 556 kts 107°
2026-05-05 05:02 32.22819 -108.97160 36868 ft 557 kts 107°
2026-05-05 05:02 32.21538 -108.88165 36870 ft 555 kts 107°
2026-05-05 05:03 32.20251 -108.79178 36870 ft 555 kts 107°
2026-05-05 05:03 32.19606 -108.74688 37027 ft 555 kts 107°
2026-05-05 05:03 32.18959 -108.70195 37040 ft 554 kts 107°
2026-05-05 05:04 32.17872 -108.62686 37017 ft 554 kts 107°
2026-05-05 05:04 32.16578 -108.53777 36984 ft 554 kts 107°
2026-05-05 05:05 32.15261 -108.44759 36934 ft 554 kts 107°
2026-05-05 05:05 32.13955 -108.35865 36864 ft 553 kts 107°
2026-05-05 05:06 32.12637 -108.26927 36853 ft 553 kts 107°
2026-05-05 05:06 32.11304 -108.17942 36850 ft 553 kts 107°
2026-05-05 05:07 32.09973 -108.09010 36852 ft 553 kts 107°
2026-05-05 05:07 32.08636 -108.00082 36846 ft 552 kts 107°
2026-05-05 05:08 32.07302 -107.91219 36846 ft 552 kts 107°
2026-05-05 05:08 32.05954 -107.82307 36840 ft 552 kts 107°
2026-05-05 05:08 32.05277 -107.77845 36950 ft 552 kts 107°
2026-05-05 05:09 32.04600 -107.73396 36932 ft 552 kts 107°
2026-05-05 05:09 32.03241 -107.64500 36932 ft 552 kts 107°
2026-05-05 05:10 32.01874 -107.55593 36874 ft 551 kts 107°
2026-05-05 05:10 32.00503 -107.46708 36837 ft 552 kts 107°
2026-05-05 05:11 31.99125 -107.37815 36803 ft 552 kts 107°
2026-05-05 05:11 31.97740 -107.28922 36794 ft 552 kts 107°
2026-05-05 05:12 31.96349 -107.20028 36757 ft 552 kts 107°
2026-05-05 05:12 31.94956 -107.11170 36774 ft 549 kts 107°
2026-05-05 05:13 31.93561 -107.02335 36772 ft 549 kts 107°
2026-05-05 05:13 31.92155 -106.93480 36782 ft 551 kts 107°
2026-05-05 05:14 31.90743 -106.84622 36989 ft 550 kts 107°
2026-05-05 05:14 31.89325 -106.75769 37015 ft 551 kts 107°
2026-05-05 05:15 31.87901 -106.66916 37024 ft 551 kts 107°
2026-05-05 05:15 31.86467 -106.58051 37004 ft 552 kts 107°
2026-05-05 05:16 31.85029 -106.49180 36996 ft 552 kts 107°
2026-05-05 05:16 31.83586 -106.40326 36994 ft 551 kts 107°
2026-05-05 05:17 31.82146 -106.31521 36925 ft 552 kts 107°
2026-05-05 05:17 31.80260 -106.22819 36956 ft 548 kts 112°
2026-05-05 05:18 31.78144 -106.14219 36879 ft 547 kts 113°
2026-05-05 05:18 31.76017 -106.05631 36820 ft 548 kts 113°
2026-05-05 05:19 31.73882 -105.97037 36736 ft 547 kts 112°
2026-05-05 05:19 31.71744 -105.88466 36745 ft 547 kts 112°
2026-05-05 05:20 31.69599 -105.79892 36755 ft 547 kts 112°
2026-05-05 05:20 31.67450 -105.71326 36757 ft 547 kts 112°
2026-05-05 05:21 31.65294 -105.62756 36750 ft 547 kts 112°
2026-05-05 05:21 31.63131 -105.54190 36763 ft 548 kts 112°
2026-05-05 05:22 31.60957 -105.45606 36761 ft 548 kts 112°
2026-05-05 05:22 31.58782 -105.37045 36765 ft 548 kts 112°
2026-05-05 05:23 31.56600 -105.28480 36782 ft 548 kts 112°
2026-05-05 05:23 31.54408 -105.19907 36785 ft 549 kts 112°
2026-05-05 05:24 31.52213 -105.11344 36776 ft 549 kts 112°
2026-05-05 05:24 31.50023 -105.02830 36784 ft 549 kts 112°
2026-05-05 05:25 31.47816 -104.94275 36780 ft 548 kts 112°
2026-05-05 05:25 31.45607 -104.85732 36787 ft 548 kts 112°
2026-05-05 05:26 31.43391 -104.77199 36781 ft 547 kts 112°
2026-05-05 05:26 31.41173 -104.68676 36789 ft 547 kts 112°
2026-05-05 05:27 31.38947 -104.60152 36787 ft 547 kts 112°
2026-05-05 05:27 31.35600 -104.47380 36790 ft 547 kts 112°
2026-05-05 05:28 31.33361 -104.38869 36796 ft 547 kts 112°
2026-05-05 05:28 31.31117 -104.30366 36790 ft 547 kts 112°
2026-05-05 05:29 31.28870 -104.21874 36794 ft 547 kts 112°
2026-05-05 05:29 31.26617 -104.13384 36796 ft 545 kts 112°
2026-05-05 05:30 31.24366 -104.04931 36788 ft 544 kts 112°
2026-05-05 05:30 31.22112 -103.96486 36793 ft 545 kts 112°
2026-05-05 05:31 31.19851 -103.88044 36791 ft 544 kts 112°
2026-05-05 05:31 31.17583 -103.79597 36807 ft 546 kts 112°
2026-05-05 05:32 31.15302 -103.71130 36802 ft 547 kts 112°
2026-05-05 05:32 31.13017 -103.62669 36799 ft 547 kts 112°
2026-05-05 05:33 31.10738 -103.54257 36810 ft 547 kts 112°
2026-05-05 05:33 31.08441 -103.45799 36743 ft 548 kts 112°
2026-05-05 05:34 31.06136 -103.37341 36768 ft 547 kts 112°
2026-05-05 05:34 31.03828 -103.28894 36760 ft 546 kts 112°
2026-05-05 05:35 31.01517 -103.20452 36756 ft 547 kts 112°
2026-05-05 05:35 30.99201 -103.12017 36763 ft 547 kts 112°
2026-05-05 05:36 30.96875 -103.03566 36764 ft 548 kts 112°
2026-05-05 05:36 30.95681 -102.94829 36761 ft 553 kts 84°
2026-05-05 05:37 30.96830 -102.85940 36749 ft 556 kts 81°
2026-05-05 05:37 30.98024 -102.77029 36764 ft 556 kts 80°
2026-05-05 05:38 30.99232 -102.68124 36770 ft 557 kts 80°
2026-05-05 05:38 31.00434 -102.59212 36771 ft 556 kts 80°
2026-05-05 05:39 31.01630 -102.50303 36772 ft 556 kts 80°
2026-05-05 05:39 31.02819 -102.41397 36782 ft 556 kts 81°
2026-05-05 05:40 31.04002 -102.32497 36776 ft 554 kts 80°
2026-05-05 05:40 31.05174 -102.23621 36777 ft 554 kts 80°
2026-05-05 05:41 31.06341 -102.14740 36789 ft 554 kts 80°
2026-05-05 05:41 31.07500 -102.05864 36784 ft 553 kts 81°
2026-05-05 05:42 31.08652 -101.97002 36797 ft 552 kts 80°
2026-05-05 05:42 31.09798 -101.88136 36795 ft 552 kts 80°
2026-05-05 05:43 31.10936 -101.79276 36796 ft 552 kts 80°
2026-05-05 05:43 31.12070 -101.70408 36799 ft 552 kts 80°
2026-05-05 05:44 31.13196 -101.61546 36801 ft 552 kts 80°
2026-05-05 05:44 31.14309 -101.52739 36803 ft 552 kts 80°
2026-05-05 05:45 31.15424 -101.43866 36807 ft 552 kts 80°
2026-05-05 05:45 31.16532 -101.34996 36803 ft 552 kts 80°